Dewpoint
70 70 69 65 55 53 48 49 50 48 50 55 55 55 54 58 56 52 68 69 72 73 75 75 76 76 75 75 75 75 75 74 74 75 74 73 74 73 73 73 73 73 73 73 73 73 73 73 73
68 69 66 61 50 45 48 51 51 52 55 56 56 56 55 57 65 67 67 71 72 74 75 75 77 76 75 75 75 74 74 74 74 74 74 74 74 74 73 73 73 74 73 73 73 73 73 73 73
70 71 61 56 52 46 47 51 50 55 56 56 54 57 58 62 66 66 69 72 73 74 75 75 77 76 75 75 76 76 75 74 74 75 74 74 75 75 74 74 74 73 73 73 73 74 74 73 73
70 65 64 55 52 53 51 51 52 53 55 55 56 55 62 66 66 68 71 73 73 74 75 76 76 75 75 75 76 75 75 76 75 75 74 75 75 75 74 74 74 74 73 74 73 73 73 73 73
68 65 56 53 52 54 54 52 54 53 53 54 55 57 61 66 69 70 72 72 73 73 74 75 77 76 76 75 75 75 74 74 74 74 74 74 75 75 75 73 73 73 73 73 73 73 72 72 72
60 62 54 50 52 50 50 53 53 54 55 56 57 57 61 69 69 70 71 72 73 73 74 75 76 77 76 75 75 75 75 75 75 75 74 75 75 75 74 75 74 74 74 74 74 74 74 74 73
60 57 54 54 53 48 49 53 53 54 55 55 57 58 62 66 69 69 70 72 72 74 74 73 74 75 75 75 75 75 76 75 75 75 75 75 75 75 75 75 75 74 74 74 74 74 74 74 73
61 60 54 55 53 49 52 52 55 54 55 57 59 59 60 65 68 69 70 72 73 73 74 73 73 73 74 73 76 75 75 75 75 75 75 76 74 74 75 76 75 74 74 74 74 74 74 74 73
65 56 54 54 54 49 52 52 54 56 56 56 57 61 62 67 68 69 70 71 72 72 72 73 73 73 73 73 74 76 75 75 74 75 74 74 74 74 75 75 75 74 74 74 74 74 75 74 73
61 55 56 58 57 52 50 52 52 55 55 55 59 63 65 67 68 68 68 68 69 70 72 73 72 72 72 73 73 74 74 74 74 75 74 73 74 74 74 75 75 74 73 73 74 75 75 74 73
61 54 57 58 58 56 50 50 52 54 53 54 58 63 65 66 67 67 67 68 69 70 71 72 71 72 72 73 73 74 73 73 74 74 72 73 74 74 74 73 73 74 75 75 75 75 76 74 72
59 59 59 60 58 57 53 50 53 53 53 55 61 64 65 66 66 66 67 67 67 69 70 72 71 71 71 72 73 73 73 73 73 73 72 72 74 73 73 73 73 73 74 74 74 73 75 75 73
59 58 57 57 56 55 55 56 53 54 55 57 62 64 65 66 66 66 66 67 67 68 69 71 71 71 71 71 72 72 72 73 73 73 72 72 73 73 72 72 72 73 74 73 73 73 73 74 72
57 58 56 57 56 56 55 56 56 56 55 57 61 63 64 65 66 66 66 66 66 67 67 70 71 71 71 71 72 72 72 73 72 72 72 72 71 72 71 72 72 72 73 73 72 71 72 73 72
59 53 55 55 57 54 55 53 55 55 54 55 55 59 64 64 65 65 66 65 65 66 66 68 70 70 70 70 71 71 71 71 72 71 71 72 72 71 71 70 70 71 72 72 71 71 72 72 71
55 52 50 54 57 56 55 52 55 55 54 53 54 55 57 59 62 64 65 65 65 65 66 68 68 69 69 70 70 71 71 71 71 71 70 71 71 71 70 70 70 70 71 72 70 72 71 70 70
52 47 51 50 55 55 53 50 56 59 55 54 54 55 56 56 58 59 60 64 64 65 66 67 68 68 69 70 70 69 70 70 70 70 70 70 70 71 71 70 70 71 71 71 72 71 71 70 69
46 48 50 48 52 53 53 52 57 58 58 54 54 55 56 56 57 57 58 59 62 63 65 67 67 68 68 69 69 69 68 69 70 70 69 69 69 70 70 70 71 71 72 72 71 71 71 70 69
52 51 50 51 53 51 51 53 53 57 59 58 59 57 57 57 56 57 57 57 57 60 64 66 66 67 67 68 68 67 66 67 68 69 69 70 69 69 70 70 71 72 71 71 71 71 70 69 69
52 50 48 50 52 50 51 51 53 55 57 58 58 58 58 60 60 59 56 56 56 57 62 64 66 66 66 67 67 67 67 67 67 68 69 69 69 69 69 70 71 72 72 71 71 70 68 68 69
51 49 49 48 52 52 51 46 49 56 58 57 57 57 57 57 59 60 59 55 55 58 60 64 66 67 66 67 67 66 67 66 66 66 66 68 70 69 69 70 70 72 71 71 70 70 68 67 68
47 51 50 49 49 44 48 41 44 48 51 56 57 58 57 57 58 59 60 55 55 56 60 63 65 67 67 67 67 66 64 65 65 65 66 67 69 69 70 69 70 71 71 71 70 70 69 68 66
46 41 50 50 44 42 46 44 44 50 45 47 51 55 57 58 58 57 59 60 54 57 58 62 64 66 67 67 67 66 66 66 68 66 66 67 69 70 70 70 71 71 71 70 69 69 69 68 67
43 40 37 41 41 39 39 43 39 42 44 47 49 50 53 54 56 59 60 61 59 56 58 61 63 64 66 67 67 67 66 67 66 66 66 67 68 70 71 72 71 71 70 70 69 68 69 68 67
34 31 28 28 31 34 34 41 41 41 43 48 47 47 50 55 57 59 61 61 62 59 59 61 62 63 66 66 66 67 67 67 66 66 67 68 69 70 71 71 70 70 70 69 68 67 67 67 66
34 28 26 26 24 26 38 38 39 41 42 48 47 50 52 53 54 57 59 62 62 63 62 62 62 62 64 66 67 67 67 67 67 66 67 68 70 70 70 70 70 70 70 70 69 68 68 67 67
34 26 32 25 22 21 28 31 37 41 45 46 46 48 48 53 57 59 62 62 64 64 64 63 63 63 64 66 66 67 67 66 66 67 68 69 68 69 69 69 68 69 69 69 68 68 68 68 68
35 28 29 22 19 22 18 27 33 39 41 43 42 46 50 58 60 61 61 62 64 66 67 67 66 66 66 66 67 67 67 67 66 67 67 67 68 68 68 67 67 67 68 68 67 67 67 68 67
26 28 21 20 19 16 17 19 33 33 37 41 40 44 53 57 59 60 62 64 66 66 67 67 67 67 67 67 67 67 67 67 66 67 67 68 67 67 67 66 66 66 67 67 67 67 67 66 66
25 27 22 25 23 19 19 21 27 42 39 38 37 48 55 59 60 62 64 65 66 66 66 67 67 67 67 67 69 70 68 66 66 67 67 67 66 66 66 66 66 66 66 66 65 65 66 65 65
Lifted_Index
-3 -3 -3 -3 -3 -3 -3 -3 -3 -3 -3 -2 -2 -2 -1 -2 -2 -2 -2 -2 -3 -4 -4 -4 -4 -4 -3 -3 -3 -3 -3 -2 -3 -3 -3 -3 -3 -3 -2 -2 -3 -3 -3 -3 -3 -3 -4 -4 -5
-3 -3 -3 -3 -2 -2 -2 -2 -2 -3 -3 -2 -2 -1 -1 -2 -2 -2 -2 -3 -3 -4 -4 -4 -4 -4 -3 -3 -3 -3 -3 -3 -3 -3 -3 -3 -3 -3 -3 -3 -3 -3 -3 -3 -3 -4 -4 -4 -5
-3 -3 -3 -3 -2 -2 -2 -2 -2 -3 -3 -2 -2 -1 -2 -2 -3 -3 -3 -3 -3 -4 -4 -4 -4 -4 -4 -3 -3 -3 -3 -3 -3 -3 -3 -3 -3 -3 -3 -3 -3 -3 -3 -3 -3 -3 -4 -4 -4
-3 -3 -3 -2 -2 -2 -2 -2 -2 -2 -2 -2 -1 -1 -2 -3 -3 -3 -3 -3 -3 -3 -4 -4 -4 -4 -3 -3 -3 -3 -3 -3 -3 -3 -3 -3 -4 -4 -3 -3 -3 -3 -3 -3 -3 -3 -3 -3 -3
-3 -3 -2 -2 -2 -2 -2 -2 -2 -2 -2 -2 -1 -2 -2 -3 -3 -3 -3 -3 -3 -3 -4 -4 -4 -4 -4 -3 -3 -3 -3 -3 -3 -3 -3 -3 -4 -4 -3 -3 -3 -3 -3 -3 -3 -3 -3 -3 -3
-2 -2 -2 -2 -2 -2 -2 -2 -2 -2 -2 -1 -1 -1 -2 -3 -3 -3 -3 -3 -3 -3 -4 -4 -4 -4 -4 -4 -4 -4 -4 -4 -4 -4 -4 -4 -4 -4 -4 -4 -3 -3 -4 -4 -3 -3 -3 -4 -3
-1 -1 -1 -2 -2 -1 -1 -1 -1 -1 -1 -1 -1 -1 -2 -2 -3 -3 -3 -3 -3 -3 -3 -4 -4 -4 -4 -4 -4 -4 -4 -4 -4 -4 -4 -4 -4 -4 -4 -4 -4 -4 -4 -4 -4 -4 -4 -4 -4
-1 -1 -1 -2 -1 -1 -0 -1 -1 -1 -1 -1 -1 -1 -1 -2 -2 -2 -2 -3 -3 -3 -3 -3 -4 -4 -4 -4 -4 -4 -4 -4 -4 -4 -4 -4 -4 -4 -4 -4 -4 -4 -4 -4 -4 -4 -4 -4 -3
-1 -1 -1 -2 -1 -1 -0 -0 -0 -0 -0 -1 -1 -1 -1 -1 -1 -2 -2 -2 -3 -3 -3 -3 -3 -4 -4 -4 -4 -4 -4 -4 -4 -4 -4 -4 -4 -4 -4 -5 -5 -4 -4 -4 -4 -4 -4 -4 -3
-1 -1 -1 -2 -1 -1 0 0 -0 -0 0 -0 -0 -0 -0 -1 -1 -1 -1 -2 -2 -2 -2 -2 -3 -3 -4 -4 -4 -4 -4 -4 -4 -4 -4 -4 -4 -4 -4 -5 -4 -4 -4 -4 -4 -4 -4 -4 -3
-1 -2 -2 -2 -1 -1 0 0 -0 -0 0 0 0 -0 -0 -0 -1 -1 -1 -1 -1 -1 -2 -2 -2 -3 -3 -4 -4 -4 -4 -4 -4 -4 -4 -3 -4 -4 -4 -4 -4 -4 -4 -4 -5 -5 -5 -4 -3
-2 -2 -2 -2 -1 -1 -0 0 -0 -0 0 0 0 -0 -0 -0 -0 -0 -0 -0 -0 -1 -1 -1 -2 -2 -3 -3 -3 -3 -3 -3 -4 -4 -3 -3 -3 -4 -4 -3 -3 -3 -4 -4 -4 -4 -4 -4 -3
-1 -2 -2 -2 -2 -1 -1 -1 -1 -0 -0 -0 -0 -0 -0 -0 -0 -0 -0 -0 -0 -0 -0 -1 -1 -2 -2 -2 -3 -3 -3 -3 -3 -3 -3 -2 -2 -3 -3 -3 -3 -3 -3 -3 -3 -3 -3 -3 -3
-1 -1 -1 -1 -2 -2 -1 -1 -1 -1 -1 -0 -0 -1 -1 -0 -0 -0 -0 -0 -0 0 0 -0 -1 -1 -1 -1 -2 -2 -2 -2 -2 -3 -3 -2 -2 -2 -2 -2 -2 -3 -3 -3 -3 -3 -2 -3 -3
-1 -1 -1 -1 -1 -1 -1 -1 -1 -1 -1 -1 -0 -1 -1 -0 -0 -0 -1 -1 -0 0 1 0 -0 -0 -0 -1 -1 -1 -2 -2 -2 -2 -2 -2 -1 -1 -1 -2 -2 -3 -3 -3 -3 -3 -3 -3 -3
-0 -1 -1 -1 -1 -1 -1 -2 -2 -1 -1 -1 -0 -0 -1 -0 -0 -1 -1 -1 -1 -0 0 0 0 -0 -0 -0 -0 -1 -1 -1 -1 -1 -1 -1 -1 -1 -2 -2 -2 -3 -3 -3 -3 -3 -3 -3 -3
-0 -0 -0 -0 -0 -1 -1 -2 -1 -1 -1 -1 -1 -1 -1 -1 -1 -1 -1 -1 -1 -1 -0 0 -0 -0 -0 -0 -0 -0 -1 -1 -1 -1 -1 -1 -1 -2 -2 -2 -3 -3 -3 -3 -3 -3 -3 -3 -2
-0 -0 -0 -0 -0 -1 -1 -1 -1 -1 -1 -1 -1 -1 -1 -1 -1 -1 -0 -0 -0 -0 -0 -0 -0 -0 -0 -0 -1 -1 -1 -1 -1 -1 -1 -1 -1 -2 -2 -2 -3 -3 -3 -3 -4 -4 -3 -3 -2
-1 -1 -0 -1 -1 -1 -1 -1 -1 -1 -1 -1 -1 -1 -1 -1 -1 -1 -0 0 0 0 -0 -0 -0 -0 -0 -0 -1 -1 -1 -1 -1 -1 -1 -1 -2 -2 -2 -2 -3 -3 -3 -4 -4 -4 -3 -3 -2
-1 -1 -1 -1 -1 -1 -1 -2 -2 -2 -2 -2 -1 -1 -1 -1 -1 -1 -1 -0 0 0 0 0 0 0 0 -0 -0 -1 -1 -2 -2 -2 -2 -2 -2 -2 -2 -2 -3 -3 -4 -4 -4 -3 -3 -2 -2
-1 -1 -1 -1 -1 -1 -1 -1 -1 -1 -2 -1 -1 -1 -1 -1 -1 -1 -1 -1 -1 -0 0 0 1 1 1 1 0 -0 -1 -2 -2 -2 -2 -2 -3 -3 -2 -2 -3 -3 -3 -4 -3 -3 -2 -2 -2
-1 -1 -1 -1 -1 -1 -1 -1 -1 -1 -1 -1 -1 -0 -0 -0 -1 -1 -1 -1 -1 -1 -0 0 0 1 1 1 0 -0 -1 -1 -2 -2 -2 -3 -3 -3 -3 -3 -3 -3 -3 -3 -3 -3 -3 -2 -2
-1 -1 -1 -1 -1 -0 -0 -0 0 0 -0 -0 -0 -0 -0 -0 -0 -1 -1 -1 -1 -1 -1 -0 -0 0 1 1 0 0 -1 -1 -2 -2 -2 -2 -3 -3 -3 -3 -3 -3 -3 -3 -3 -2 -2 -2 -2
-1 -0 -0 -0 -0 0 0 0 1 1 1 0 -0 -0 -0 -0 -1 -1 -1 -1 -1 -1 -1 -1 -1 -0 0 1 1 0 -0 -1 -1 -1 -1 -2 -3 -3 -3 -3 -3 -3 -3 -2 -2 -2 -2 -2 -2
-0 0 0 -0 0 1 1 1 1 2 2 1 0 -0 0 -0 -1 -1 -1 -1 -1 -1 -1 -1 -1 -1 -0 1 1 1 0 -0 -1 -1 -1 -1 -2 -3 -3 -3 -3 -3 -3 -2 -2 -2 -1 -1 -1
-0 0 0 0 -0 0 1 1 2 2 2 1 1 1 1 1 -0 -1 -1 -1 -0 -0 -1 -1 -1 -1 -0 0 1 1 1 0 -0 -0 -1 -1 -2 -3 -3 -3 -3 -3 -2 -2 -2 -2 -1 -1 -0
0 1 1 0 0 0 1 1 2 2 2 2 2 2 2 1 -0 -0 -0 0 0 -0 -0 -1 -1 -1 -1 -0 -0 0 0 0 0 -0 -0 -1 -2 -3 -3 -3 -2 -2 -2 -2 -2 -1 -1 -0 0
1 1 1 1 1 1 1 1 2 2 2 2 2 2 2 1 -0 -0 -0 0 0 0 -0 -1 -1 -1 -1 -1 -1 -1 -1 -0 -0 -0 -1 -1 -2 -3 -3 -2 -1 -1 -1 -1 -1 -1 -0 0 0
1 2 2 2 1 1 1 1 2 2 2 2 2 2 2 0 -1 -1 -0 -0 -0 -0 -1 -1 -1 -1 -1 -1 -1 -1 -1 -1 -1 -2 -2 -2 -2 -3 -3 -2 -1 -0 -0 -1 -0 -0 -0 0 0
2 2 2 2 2 2 1 1 2 2 2 2 2 2 1 -0 -1 -1 -1 -1 -1 -1 -1 -1 -1 -1 -1 -1 -1 -1 -1 -2 -2 -2 -2 -2 -3 -3 -3 -2 -1 0 0 -0 -0 -0 0 1 1